Location: Unspecified
(51.5147°N, 7.4673°E)
Time: 08:22:27
(UTC+01:00)

Explorer 7 - Pass Details

Date: 23 February 2026
Orbit: 430 x 541 km, 50.2° (Epoch: 11 March)

Event Time Altitude Azimuth Distance (km) Brightness Sun altitude
Rises 13:42:45 0° 220° (SW) 2,397 11.1 27.5°
Reaches altitude 10° 13:45:03 10° 207° (SSW) 1,542 10.8 27.3°
Maximum altitude 13:47:58 25° 150° (SSE) 926 8.8 27.2°
Drops below altitude 10° 13:50:57 10° 92° (E) 1,585 9.1 27.1°
Sets 13:53:21 0° 80° (E) 2,481 9.9 26.9°
